Home > Weather > Faridkot > Past weeks

Flag for India Past Weather in Faridkot, Punjab, India — Yesterday and Last 2 Weeks

Now
91 °F

Scattered clouds.


Feels Like: 105 °F
Forecast: 81 / 94 °F
Wind: 7 mph from Southeast

Location: Lahore Airport

Current Time: Jul 30, 2016 at 4:52:36 PM

Latest Report: Jul 30, 2016 at 4:25 PM


Visibility: 4 mi

Pressure: 29.53 "Hg

Humidity: 63%

Dew Point: 77 °F

Location of FaridkotLocation

Past Weather in Faridkot — Graph

°F

Faridkot Temperature Yesterday

Maximum temperature yesterday: 95 °F (at 3:00 PM)
Minimum temperature yesterday: 82 °F (at 4:25 AM)
Average temperature yesterday: 88 °F

High & Low Weather Summary for the Past Weeks

 TemperatureHumidityPressure
High104 °F (Jul 20, 2:55 PM)100% (Jul 17, 3:25 AM)32.46 "Hg (Jul 17, 3:25 AM)
Low73 °F (Jul 17, 4:25 AM)38% (Jul 20, 3:29 PM)29.42 "Hg (Jul 15, 4:55 PM)
Average88 °F73%29.58 "Hg
* Reported Jul 15 2:55 PM — Jul 30 3:25 PM, Faridkot, Weather by CustomWeather, © 2016

Note: Actual official high and low records may vary slightly from our data, if they occured in-between our weather recording intervals... More about our weather records

Advertising

Faridkot Weather History for the Previous 24 Hours

Scroll right to see more
 ConditionsComfort  
Time TempWeatherWind HumidityBarometerVisibility
3:25 PM
Sat, Jul 30
91 °FScattered clouds.6 mph63%29.56 "Hg4 mi
2:55 PM91 °FScattered clouds.10 mph67%29.56 "Hg4 mi
2:25 PM91 °FScattered clouds.12 mph67%29.56 "Hg4 mi
1:55 PM90 °FScattered clouds.13 mph67%29.59 "Hg4 mi
1:25 PM86 °FScattered clouds.13 mph75%29.59 "Hg4 mi
12:55 PM84 °FScattered clouds.12 mph79%29.62 "Hg3 mi
12:25 PM82 °FBroken clouds.8 mph84%29.65 "Hg3 mi
11:55 AM79 °FThunderstorms. Broken clouds.13 mph100%29.65 "Hg2 mi
11:25 AM79 °FThunderstorms. Mostly cloudy.16 mph100%29.65 "Hg2 mi
10:55 AM81 °FThunderstorms. Mostly cloudy.20 mph84%29.65 "Hg1 mi
10:25 AM88 °FBroken clouds.5 mph75%29.65 "Hg2 mi
9:55 AM86 °FBroken clouds.5 mph79%29.65 "Hg2 mi
9:25 AM86 °FBroken clouds.8 mph79%29.62 "Hg2 mi
8:59 AM84 °FScattered clouds.9 mph84%29.62 "Hg2 mi
8:25 AM84 °FScattered clouds.6 mph84%29.62 "Hg2 mi
7:55 AM82 °FScattered clouds.8 mph84%29.62 "Hg2 mi
7:25 AM82 °FScattered clouds.9 mph84%29.59 "Hg2 mi
6:55 AM82 °FScattered clouds.9 mph84%29.59 "Hg2 mi
6:25 AM81 °FScattered clouds.7 mph89%29.56 "Hg2 mi
5:25 AM81 °FPassing clouds.9 mph89%29.53 "Hg2 mi
4:25 AM82 °FPassing clouds.9 mph84%29.53 "Hg2 mi
3:25 AM82 °FPassing clouds.7 mph84%29.56 "Hg2 mi
2:29 AM84 °FPassing clouds.6 mph79%29.56 "Hg2 mi
1:29 AM84 °FPassing clouds.7 mph84%29.59 "Hg2 mi
12:59 AM86 °FPassing clouds.7 mph75%29.59 "Hg2 mi
11:29 PM
Fri, Jul 29
86 °FPassing clouds.9 mph79%29.56 "Hg2 mi
10:59 PM86 °FPassing clouds.9 mph79%29.56 "Hg2 mi
10:29 PM86 °FPassing clouds.9 mph79%29.56 "Hg2 mi
8:25 PM90 °FPartly cloudy.8 mph71%29.53 "Hg2 mi
7:25 PM91 °FScattered clouds.9 mph67%29.50 "Hg2 mi
6:25 PM93 °FBroken clouds.7 mph63%29.50 "Hg2 mi
4:30 PM95 °FBroken clouds.5 mph60%29.50 "Hg2 mi
4:00 PM95 °FBroken clouds.5 mph60%29.53 "Hg2 mi
Weather by CustomWeather, © 2016

See weather overviewHow to use our weather pages